Year,Month,Day,Hour,Minute,Value (Times are PST for temperature in C)
2018,06,17,00,00,16.30
2018,06,17,00,01,16.30
2018,06,17,00,02,16.30
2018,06,17,00,03,16.30
2018,06,17,00,04,16.30
2018,06,17,00,05,16.30
2018,06,17,00,06,16.20
2018,06,17,00,07,16.20
2018,06,17,00,08,16.20
2018,06,17,00,09,16.20
2018,06,17,00,10,16.20
2018,06,17,00,11,16.20
2018,06,17,00,12,16.20
2018,06,17,00,13,16.20
2018,06,17,00,14,16.20
2018,06,17,00,15,16.20
2018,06,17,00,16,16.20
2018,06,17,00,17,16.20
2018,06,17,00,18,16.20
2018,06,17,00,19,16.10
2018,06,17,00,20,16.10
2018,06,17,00,21,16.10
2018,06,17,00,22,16.10
2018,06,17,00,23,16.00
2018,06,17,00,24,16.00
2018,06,17,00,25,16.00
2018,06,17,00,26,15.90
2018,06,17,00,27,15.90
2018,06,17,00,28,15.90
2018,06,17,00,29,15.90
2018,06,17,00,30,15.90
2018,06,17,00,31,15.90
2018,06,17,00,32,15.80
2018,06,17,00,33,15.80
2018,06,17,00,34,15.80
2018,06,17,00,35,15.80
2018,06,17,00,36,15.80
2018,06,17,00,37,15.80
2018,06,17,00,38,15.80
2018,06,17,00,39,15.70
2018,06,17,00,40,15.70
2018,06,17,00,41,15.70
2018,06,17,00,42,15.70
2018,06,17,00,43,15.60
2018,06,17,00,44,15.60
2018,06,17,00,45,15.60
2018,06,17,00,46,15.60
2018,06,17,00,47,15.60
2018,06,17,00,48,15.50
2018,06,17,00,49,15.50
2018,06,17,00,50,15.50
2018,06,17,00,51,15.40
2018,06,17,00,52,15.40
2018,06,17,00,53,15.40
2018,06,17,00,54,15.40
2018,06,17,00,55,15.40
2018,06,17,00,56,15.40
2018,06,17,00,57,15.40
2018,06,17,00,58,15.40
2018,06,17,00,59,15.50
2018,06,17,01,00,15.50
2018,06,17,01,01,15.50
2018,06,17,01,02,15.50
2018,06,17,01,03,15.50
2018,06,17,01,04,15.50
2018,06,17,01,05,15.50
2018,06,17,01,06,15.50
2018,06,17,01,07,15.50
2018,06,17,01,08,15.50
2018,06,17,01,09,15.50
2018,06,17,01,10,15.50
2018,06,17,01,11,15.50
2018,06,17,01,12,15.50
2018,06,17,01,13,15.50
2018,06,17,01,14,15.50
2018,06,17,01,15,15.50
2018,06,17,01,16,15.50
2018,06,17,01,17,15.60
2018,06,17,01,18,15.60
2018,06,17,01,19,15.60
2018,06,17,01,20,15.60
2018,06,17,01,21,15.60
2018,06,17,01,22,15.60
2018,06,17,01,23,15.60
2018,06,17,01,24,15.60
2018,06,17,01,25,15.60
2018,06,17,01,26,15.60
2018,06,17,01,27,15.60
2018,06,17,01,28,15.60
2018,06,17,01,29,15.60
2018,06,17,01,30,15.60
2018,06,17,01,31,15.60
2018,06,17,01,32,15.60
2018,06,17,01,33,15.60
2018,06,17,01,34,15.60
2018,06,17,01,35,15.60
2018,06,17,01,36,15.60
2018,06,17,01,37,15.60
2018,06,17,01,38,15.60
2018,06,17,01,39,15.60
2018,06,17,01,40,15.60
2018,06,17,01,41,15.50
2018,06,17,01,42,15.50
2018,06,17,01,43,15.50
2018,06,17,01,44,15.50
2018,06,17,01,45,15.50
2018,06,17,01,46,15.40
2018,06,17,01,47,15.40
2018,06,17,01,48,15.40
2018,06,17,01,49,15.40
2018,06,17,01,50,15.40
2018,06,17,01,51,15.40
2018,06,17,01,52,15.40
2018,06,17,01,53,15.40
2018,06,17,01,54,15.30
2018,06,17,01,55,15.30
2018,06,17,01,56,15.30
2018,06,17,01,57,15.30
2018,06,17,01,58,15.30
2018,06,17,01,59,15.30
2018,06,17,02,00,15.30
2018,06,17,02,01,15.30
2018,06,17,02,02,15.30
2018,06,17,02,03,15.30
2018,06,17,02,04,15.30
2018,06,17,02,05,15.30
2018,06,17,02,06,15.20
2018,06,17,02,07,15.20
2018,06,17,02,08,15.20
2018,06,17,02,09,15.20
2018,06,17,02,10,15.20
2018,06,17,02,11,15.20
2018,06,17,02,12,15.20
2018,06,17,02,13,15.20
2018,06,17,02,14,15.20
2018,06,17,02,15,15.20
2018,06,17,02,16,15.20
2018,06,17,02,17,15.20
2018,06,17,02,18,15.20
2018,06,17,02,19,15.20
2018,06,17,02,20,15.10
2018,06,17,02,21,15.10
2018,06,17,02,22,15.10
2018,06,17,02,23,15.10
2018,06,17,02,24,15.10
2018,06,17,02,25,15.10
2018,06,17,02,26,15.10
2018,06,17,02,27,15.10
2018,06,17,02,28,15.10
2018,06,17,02,29,15.00
2018,06,17,02,30,15.00
2018,06,17,02,31,15.00
2018,06,17,02,32,15.00
2018,06,17,02,33,15.00
2018,06,17,02,34,14.90
2018,06,17,02,35,14.90
2018,06,17,02,36,14.90
2018,06,17,02,37,14.90
2018,06,17,02,38,14.90
2018,06,17,02,39,14.90
2018,06,17,02,40,14.90
2018,06,17,02,41,14.90
2018,06,17,02,42,14.90
2018,06,17,02,43,14.80
2018,06,17,02,44,14.80
2018,06,17,02,45,14.80
2018,06,17,02,46,14.80
2018,06,17,02,47,14.80
2018,06,17,02,48,14.80
2018,06,17,02,49,14.80
2018,06,17,02,50,14.70
2018,06,17,02,51,14.70
2018,06,17,02,52,14.70
2018,06,17,02,53,14.70
2018,06,17,02,54,14.70
2018,06,17,02,55,14.70
2018,06,17,02,56,14.70
2018,06,17,02,57,14.70
2018,06,17,02,58,14.70
2018,06,17,02,59,14.70
2018,06,17,03,00,14.70
2018,06,17,03,01,14.60
2018,06,17,03,02,14.60
2018,06,17,03,03,14.60
2018,06,17,03,04,14.60
2018,06,17,03,05,14.60
2018,06,17,03,06,14.60
2018,06,17,03,07,14.60
2018,06,17,03,08,14.60
2018,06,17,03,09,14.60
2018,06,17,03,10,14.60
2018,06,17,03,11,14.50
2018,06,17,03,12,14.50
2018,06,17,03,13,14.50
2018,06,17,03,14,14.50
2018,06,17,03,15,14.50
2018,06,17,03,16,14.50
2018,06,17,03,17,14.50
2018,06,17,03,18,14.50
2018,06,17,03,19,14.50
2018,06,17,03,20,14.50
2018,06,17,03,21,14.40
2018,06,17,03,22,14.40
2018,06,17,03,23,14.40
2018,06,17,03,24,14.40
2018,06,17,03,25,14.40
2018,06,17,03,26,14.40
2018,06,17,03,27,14.40
2018,06,17,03,28,14.40
2018,06,17,03,29,14.40
2018,06,17,03,30,14.40
2018,06,17,03,31,14.40
2018,06,17,03,32,14.40
2018,06,17,03,33,14.40
2018,06,17,03,34,14.40
2018,06,17,03,35,14.30
2018,06,17,03,36,14.40
2018,06,17,03,37,14.30
2018,06,17,03,38,14.30
2018,06,17,03,39,14.30
2018,06,17,03,40,14.30
2018,06,17,03,41,14.30
2018,06,17,03,42,14.30
2018,06,17,03,43,14.30
2018,06,17,03,44,14.30
2018,06,17,03,45,14.30
2018,06,17,03,46,14.30
2018,06,17,03,47,14.30
2018,06,17,03,48,14.30
2018,06,17,03,49,14.30
2018,06,17,03,50,14.30
2018,06,17,03,51,14.30
2018,06,17,03,52,14.30
2018,06,17,03,53,14.30
2018,06,17,03,54,14.20
2018,06,17,03,55,14.20
2018,06,17,03,56,14.20
2018,06,17,03,57,14.20
2018,06,17,03,58,14.20
2018,06,17,03,59,14.20
2018,06,17,04,00,14.20
2018,06,17,04,01,14.20
2018,06,17,04,02,14.20
2018,06,17,04,03,14.20
2018,06,17,04,04,14.20
2018,06,17,04,05,14.20
2018,06,17,04,06,14.20
2018,06,17,04,07,14.10
2018,06,17,04,08,14.10
2018,06,17,04,09,14.10
2018,06,17,04,10,14.10
2018,06,17,04,11,14.10
2018,06,17,04,12,14.10
2018,06,17,04,13,14.10
2018,06,17,04,14,14.00
2018,06,17,04,15,14.00
2018,06,17,04,16,14.00
2018,06,17,04,17,14.00
2018,06,17,04,18,13.90
2018,06,17,04,19,13.90
2018,06,17,04,20,13.90
2018,06,17,04,21,13.90
2018,06,17,04,22,13.90
2018,06,17,04,23,13.90
2018,06,17,04,24,13.90
2018,06,17,04,25,13.90
2018,06,17,04,26,13.80
2018,06,17,04,27,13.80
2018,06,17,04,28,13.80
2018,06,17,04,29,13.80
2018,06,17,04,30,13.80
2018,06,17,04,31,13.80
2018,06,17,04,32,13.80
2018,06,17,04,33,13.80
2018,06,17,04,34,13.80
2018,06,17,04,35,13.80
2018,06,17,04,36,13.70
2018,06,17,04,37,13.70
2018,06,17,04,38,13.70
2018,06,17,04,39,13.70
2018,06,17,04,40,13.70
2018,06,17,04,41,13.70
2018,06,17,04,42,13.70
2018,06,17,04,43,13.70
2018,06,17,04,44,13.70
2018,06,17,04,45,13.70
2018,06,17,04,46,13.70
2018,06,17,04,47,13.70
2018,06,17,04,48,13.70
2018,06,17,04,49,13.70
2018,06,17,04,50,13.60
2018,06,17,04,51,13.60
2018,06,17,04,52,13.60
2018,06,17,04,53,13.60
2018,06,17,04,54,13.60
2018,06,17,04,55,13.60
2018,06,17,04,56,13.60
2018,06,17,04,57,13.60
2018,06,17,04,58,13.60
2018,06,17,04,59,13.60
2018,06,17,05,00,13.60
2018,06,17,05,01,13.60
2018,06,17,05,02,13.60
2018,06,17,05,03,13.60
2018,06,17,05,04,13.60
2018,06,17,05,05,13.50
2018,06,17,05,06,13.50
2018,06,17,05,07,13.50
2018,06,17,05,08,13.50
2018,06,17,05,09,13.40
2018,06,17,05,10,13.40
2018,06,17,05,11,13.40
2018,06,17,05,12,13.40
2018,06,17,05,13,13.40
2018,06,17,05,14,13.40
2018,06,17,05,15,13.40
2018,06,17,05,16,13.40
2018,06,17,05,17,13.30
2018,06,17,05,18,13.30
2018,06,17,05,19,13.30
2018,06,17,05,20,13.30
2018,06,17,05,21,13.30
2018,06,17,05,22,13.30
2018,06,17,05,23,13.30
2018,06,17,05,24,13.30
2018,06,17,05,25,13.30
2018,06,17,05,26,13.30
2018,06,17,05,27,13.30
2018,06,17,05,28,13.20
2018,06,17,05,29,13.20
2018,06,17,05,30,13.20
2018,06,17,05,31,13.20
2018,06,17,05,32,13.20
2018,06,17,05,33,13.20
2018,06,17,05,34,13.20
2018,06,17,05,35,13.10
2018,06,17,05,36,13.10
2018,06,17,05,37,13.10
2018,06,17,05,38,13.10
2018,06,17,05,39,13.10
2018,06,17,05,40,13.10
2018,06,17,05,41,13.10
2018,06,17,05,42,13.10
2018,06,17,05,43,13.00
2018,06,17,05,44,13.10
2018,06,17,05,45,13.00
2018,06,17,05,46,13.10
2018,06,17,05,47,13.00
2018,06,17,05,48,13.00
2018,06,17,05,49,13.00
2018,06,17,05,50,13.00
2018,06,17,05,51,13.00
2018,06,17,05,52,13.00
2018,06,17,05,53,12.90
2018,06,17,05,54,12.90
2018,06,17,05,55,12.90
2018,06,17,05,56,12.90
2018,06,17,05,57,12.90
2018,06,17,05,58,12.90
2018,06,17,05,59,12.90
2018,06,17,06,00,12.80
2018,06,17,06,01,12.80
2018,06,17,06,02,12.80
2018,06,17,06,03,12.80
2018,06,17,06,04,12.80
2018,06,17,06,05,12.80
2018,06,17,06,06,12.80
2018,06,17,06,07,12.80
2018,06,17,06,08,12.80
2018,06,17,06,09,12.80
2018,06,17,06,10,12.80
2018,06,17,06,11,12.80
2018,06,17,06,12,12.80
2018,06,17,06,13,12.80
2018,06,17,06,14,12.80
2018,06,17,06,15,12.80
2018,06,17,06,16,12.80
2018,06,17,06,17,12.80
2018,06,17,06,18,12.80
2018,06,17,06,19,12.80
2018,06,17,06,20,12.80
2018,06,17,06,21,12.80
2018,06,17,06,22,12.80
2018,06,17,06,23,12.80
2018,06,17,06,24,12.90
2018,06,17,06,25,12.90
2018,06,17,06,26,12.90
2018,06,17,06,27,12.90
2018,06,17,06,28,12.90
2018,06,17,06,29,12.90
2018,06,17,06,30,12.90
2018,06,17,06,31,12.90
2018,06,17,06,32,12.90
2018,06,17,06,33,12.90
2018,06,17,06,34,12.90
2018,06,17,06,35,12.90
2018,06,17,06,36,12.90
2018,06,17,06,37,12.90
2018,06,17,06,38,13.00
2018,06,17,06,39,13.00
2018,06,17,06,40,13.00
2018,06,17,06,41,13.00
2018,06,17,06,42,13.10
2018,06,17,06,43,13.10
2018,06,17,06,44,13.10
2018,06,17,06,45,13.20
2018,06,17,06,46,13.20
2018,06,17,06,47,13.20
2018,06,17,06,48,13.20
2018,06,17,06,49,13.30
2018,06,17,06,50,13.30
2018,06,17,06,51,13.30
2018,06,17,06,52,13.30
2018,06,17,06,53,13.30
2018,06,17,06,54,13.40
2018,06,17,06,55,13.40
2018,06,17,06,56,13.40
2018,06,17,06,57,13.40
2018,06,17,06,58,13.40
2018,06,17,06,59,13.50
2018,06,17,07,00,13.50
2018,06,17,07,01,13.60
2018,06,17,07,02,13.60
2018,06,17,07,03,13.60
2018,06,17,07,04,13.70
2018,06,17,07,05,13.70
2018,06,17,07,06,13.70
2018,06,17,07,07,13.80
2018,06,17,07,08,13.80
2018,06,17,07,09,13.80
2018,06,17,07,10,13.90
2018,06,17,07,11,13.90
2018,06,17,07,12,13.90
2018,06,17,07,13,14.00
2018,06,17,07,14,14.00
2018,06,17,07,15,14.10
2018,06,17,07,16,14.10
2018,06,17,07,17,14.10
2018,06,17,07,18,14.10
2018,06,17,07,19,14.20
2018,06,17,07,20,14.20
2018,06,17,07,21,14.20
2018,06,17,07,22,14.30
2018,06,17,07,23,14.30
2018,06,17,07,24,14.30
2018,06,17,07,25,14.30
2018,06,17,07,26,14.40
2018,06,17,07,27,14.40
2018,06,17,07,28,14.40
2018,06,17,07,29,14.50
2018,06,17,07,30,14.50
2018,06,17,07,31,14.60
2018,06,17,07,32,14.60
2018,06,17,07,33,14.60
2018,06,17,07,34,14.70
2018,06,17,07,35,14.70
2018,06,17,07,36,14.70
2018,06,17,07,37,14.80
2018,06,17,07,38,14.80
2018,06,17,07,39,14.90
2018,06,17,07,40,14.90
2018,06,17,07,41,15.00
2018,06,17,07,42,15.10
2018,06,17,07,43,15.10
2018,06,17,07,44,15.20
2018,06,17,07,45,15.30
2018,06,17,07,46,15.40
2018,06,17,07,47,15.50
2018,06,17,07,48,15.60
2018,06,17,07,49,15.70
2018,06,17,07,50,15.80
2018,06,17,07,51,15.90
2018,06,17,07,52,16.00
2018,06,17,07,53,16.10
2018,06,17,07,54,16.20
2018,06,17,07,55,16.40
2018,06,17,07,56,16.50
2018,06,17,07,57,16.60
2018,06,17,07,58,16.70
2018,06,17,07,59,16.80
2018,06,17,08,00,16.90
2018,06,17,08,01,17.00
2018,06,17,08,02,17.10
2018,06,17,08,03,17.20
2018,06,17,08,04,17.30
2018,06,17,08,05,17.40
2018,06,17,08,06,17.50
2018,06,17,08,07,17.60
2018,06,17,08,08,17.70
2018,06,17,08,09,17.80
2018,06,17,08,10,17.90
2018,06,17,08,11,18.00
2018,06,17,08,12,18.00
2018,06,17,08,13,18.10
2018,06,17,08,14,18.20
2018,06,17,08,15,18.20
2018,06,17,08,16,18.30
2018,06,17,08,17,18.40
2018,06,17,08,18,18.40
2018,06,17,08,19,18.60
2018,06,17,08,20,18.70
2018,06,17,08,21,18.80
2018,06,17,08,22,18.90
2018,06,17,08,23,19.00
2018,06,17,08,24,19.20
2018,06,17,08,25,19.30
2018,06,17,08,26,19.50
2018,06,17,08,27,19.70
2018,06,17,08,28,19.80
2018,06,17,08,29,20.00
2018,06,17,08,30,20.10
2018,06,17,08,31,20.30
2018,06,17,08,32,20.40
2018,06,17,08,33,20.60
2018,06,17,08,34,20.70
2018,06,17,08,35,20.80
2018,06,17,08,36,20.90
2018,06,17,08,37,21.00
2018,06,17,08,38,21.10
2018,06,17,08,39,21.30
2018,06,17,08,40,21.30
2018,06,17,08,41,21.40
2018,06,17,08,42,21.50
2018,06,17,08,43,21.60
2018,06,17,08,44,21.70
2018,06,17,08,45,21.70
2018,06,17,08,46,21.80
2018,06,17,08,47,21.80
2018,06,17,08,48,21.90
2018,06,17,08,49,21.90
2018,06,17,08,50,22.00
2018,06,17,08,51,22.00
2018,06,17,08,52,22.00
2018,06,17,08,53,22.10
2018,06,17,08,54,22.20
2018,06,17,08,55,22.20
2018,06,17,08,56,22.30
2018,06,17,08,57,22.40
2018,06,17,08,58,22.50
2018,06,17,08,59,22.50
2018,06,17,09,00,22.60
2018,06,17,09,01,22.70
2018,06,17,09,02,22.80
2018,06,17,09,03,22.90
2018,06,17,09,04,23.00
2018,06,17,09,05,23.10
2018,06,17,09,06,23.20
2018,06,17,09,07,23.30
2018,06,17,09,08,23.30
2018,06,17,09,09,23.40
2018,06,17,09,10,23.50
2018,06,17,09,11,23.60
2018,06,17,09,12,23.70
2018,06,17,09,13,23.70
2018,06,17,09,14,23.80
2018,06,17,09,15,23.90
2018,06,17,09,16,23.90
2018,06,17,09,17,24.00
2018,06,17,09,18,24.10
2018,06,17,09,19,24.10
2018,06,17,09,20,24.20
2018,06,17,09,21,24.20
2018,06,17,09,22,24.30
2018,06,17,09,23,24.30
2018,06,17,09,24,24.40
2018,06,17,09,25,24.40
2018,06,17,09,26,24.40
2018,06,17,09,27,24.40
2018,06,17,09,28,24.40
2018,06,17,09,29,24.40
2018,06,17,09,30,24.40
2018,06,17,09,31,24.40
2018,06,17,09,32,24.40
2018,06,17,09,33,24.40
2018,06,17,09,34,24.40
2018,06,17,09,35,24.40
2018,06,17,09,36,24.50
2018,06,17,09,37,24.50
2018,06,17,09,38,24.50
2018,06,17,09,39,24.60
2018,06,17,09,40,24.60
2018,06,17,09,41,24.70
2018,06,17,09,42,24.80
2018,06,17,09,43,25.00
2018,06,17,09,44,25.10
2018,06,17,09,45,25.10
2018,06,17,09,46,25.20
2018,06,17,09,47,25.30
2018,06,17,09,48,25.30
2018,06,17,09,49,25.30
2018,06,17,09,50,25.30
2018,06,17,09,51,25.30
2018,06,17,09,52,25.30
2018,06,17,09,53,25.40
2018,06,17,09,54,25.30
2018,06,17,09,55,25.30
2018,06,17,09,56,25.40
2018,06,17,09,57,25.40
2018,06,17,09,58,25.50
2018,06,17,09,59,25.40
2018,06,17,10,00,25.40
2018,06,17,10,01,25.40
2018,06,17,10,02,25.30
2018,06,17,10,03,25.20
2018,06,17,10,04,25.20
2018,06,17,10,05,25.20
2018,06,17,10,06,25.20
2018,06,17,10,07,25.20
2018,06,17,10,08,25.20
2018,06,17,10,09,25.20
2018,06,17,10,10,25.20
2018,06,17,10,11,25.20
2018,06,17,10,12,25.20
2018,06,17,10,13,25.30
2018,06,17,10,14,25.40
2018,06,17,10,15,25.40
2018,06,17,10,16,25.40
2018,06,17,10,17,25.40
2018,06,17,10,18,25.40
2018,06,17,10,19,25.50
2018,06,17,10,20,25.60
2018,06,17,10,21,25.70
2018,06,17,10,22,25.80
2018,06,17,10,23,25.80
2018,06,17,10,24,25.80
2018,06,17,10,25,25.80
2018,06,17,10,26,25.90
2018,06,17,10,27,25.90
2018,06,17,10,28,25.90
2018,06,17,10,29,25.90
2018,06,17,10,30,25.90
2018,06,17,10,31,25.80
2018,06,17,10,32,25.80
2018,06,17,10,33,25.80
2018,06,17,10,34,25.80
2018,06,17,10,35,25.80
2018,06,17,10,36,25.90
2018,06,17,10,37,26.00
2018,06,17,10,38,26.00
2018,06,17,10,39,25.90
2018,06,17,10,40,25.90
2018,06,17,10,41,25.80
2018,06,17,10,42,25.80
2018,06,17,10,43,25.90
2018,06,17,10,44,25.90
2018,06,17,10,45,26.00
2018,06,17,10,46,26.00
2018,06,17,10,47,26.10
2018,06,17,10,48,26.10
2018,06,17,10,49,26.10
2018,06,17,10,50,26.00
2018,06,17,10,51,26.00
2018,06,17,10,52,26.10
2018,06,17,10,53,26.10
2018,06,17,10,54,26.10
2018,06,17,10,55,26.10
2018,06,17,10,56,26.20
2018,06,17,10,57,26.30
2018,06,17,10,58,26.40
2018,06,17,10,59,26.40
2018,06,17,11,00,26.40
2018,06,17,11,01,26.40
2018,06,17,11,02,26.40
2018,06,17,11,03,26.40
2018,06,17,11,04,26.30
2018,06,17,11,05,26.30
2018,06,17,11,06,26.30
2018,06,17,11,07,26.30
2018,06,17,11,08,26.30
2018,06,17,11,09,26.40
2018,06,17,11,10,26.50
2018,06,17,11,11,26.60
2018,06,17,11,12,26.70
2018,06,17,11,13,26.70
2018,06,17,11,14,26.80
2018,06,17,11,15,26.80
2018,06,17,11,16,26.90
2018,06,17,11,17,26.90
2018,06,17,11,18,27.00
2018,06,17,11,19,27.00
2018,06,17,11,20,27.10
2018,06,17,11,21,27.10
2018,06,17,11,22,27.20
2018,06,17,11,23,27.30
2018,06,17,11,24,27.40
2018,06,17,11,25,27.50
2018,06,17,11,26,27.50
2018,06,17,11,27,27.50
2018,06,17,11,28,27.50
2018,06,17,11,29,27.50
2018,06,17,11,30,27.40
2018,06,17,11,31,27.30
2018,06,17,11,32,27.30
2018,06,17,11,33,27.40
2018,06,17,11,34,27.40
2018,06,17,11,35,27.40
2018,06,17,11,36,27.30
2018,06,17,11,37,27.30
2018,06,17,11,38,27.20
2018,06,17,11,39,27.20
2018,06,17,11,40,27.10
2018,06,17,11,41,27.10
2018,06,17,11,42,27.20
2018,06,17,11,43,27.30
2018,06,17,11,44,27.40
2018,06,17,11,45,27.50
2018,06,17,11,46,27.60
2018,06,17,11,47,27.70
2018,06,17,11,48,27.70
2018,06,17,11,49,27.50
2018,06,17,11,50,27.40
2018,06,17,11,51,27.20
2018,06,17,11,52,27.00
2018,06,17,11,53,27.00
2018,06,17,11,54,27.10
2018,06,17,11,55,27.10
2018,06,17,11,56,27.10
2018,06,17,11,57,27.10
2018,06,17,11,58,27.10
2018,06,17,11,59,27.10
2018,06,17,12,00,27.10
2018,06,17,12,01,27.10
2018,06,17,12,02,27.20
2018,06,17,12,03,27.30
2018,06,17,12,04,27.50
2018,06,17,12,05,27.70
2018,06,17,12,06,27.80
2018,06,17,12,07,27.80
2018,06,17,12,08,27.90
2018,06,17,12,09,27.90
2018,06,17,12,10,28.00
2018,06,17,12,11,28.10
2018,06,17,12,12,28.10
2018,06,17,12,13,28.00
2018,06,17,12,14,27.90
2018,06,17,12,15,27.90
2018,06,17,12,16,27.80
2018,06,17,12,17,27.80
2018,06,17,12,18,27.80
2018,06,17,12,19,27.90
2018,06,17,12,20,27.90
2018,06,17,12,21,28.00
2018,06,17,12,22,28.10
2018,06,17,12,23,28.20
2018,06,17,12,24,28.10
2018,06,17,12,25,28.10
2018,06,17,12,26,28.20
2018,06,17,12,27,28.30
2018,06,17,12,28,28.50
2018,06,17,12,29,28.60
2018,06,17,12,30,28.60
2018,06,17,12,31,28.60
2018,06,17,12,32,28.60
2018,06,17,12,33,28.70
2018,06,17,12,34,28.70
2018,06,17,12,35,28.70
2018,06,17,12,36,28.70
2018,06,17,12,37,28.60
2018,06,17,12,38,28.50
2018,06,17,12,39,28.40
2018,06,17,12,40,28.30
2018,06,17,12,41,28.30
2018,06,17,12,42,28.40
2018,06,17,12,43,28.40
2018,06,17,12,44,28.40
2018,06,17,12,45,28.40
2018,06,17,12,46,28.40
2018,06,17,12,47,28.50
2018,06,17,12,48,28.60
2018,06,17,12,49,28.60
2018,06,17,12,50,28.60
2018,06,17,12,51,28.60
2018,06,17,12,52,28.50
2018,06,17,12,53,28.60
2018,06,17,12,54,28.60
2018,06,17,12,55,28.60
2018,06,17,12,56,28.70
2018,06,17,12,57,28.70
2018,06,17,12,58,28.70
2018,06,17,12,59,28.80
2018,06,17,13,00,28.90
2018,06,17,13,01,28.90
2018,06,17,13,02,29.00
2018,06,17,13,03,29.10
2018,06,17,13,04,29.10
2018,06,17,13,05,29.20
2018,06,17,13,06,29.30
2018,06,17,13,07,29.50
2018,06,17,13,08,29.60
2018,06,17,13,09,29.70
2018,06,17,13,10,29.70
2018,06,17,13,11,29.70
2018,06,17,13,12,29.80
2018,06,17,13,13,29.80
2018,06,17,13,14,29.80
2018,06,17,13,15,29.80
2018,06,17,13,16,29.80
2018,06,17,13,17,29.80
2018,06,17,13,18,29.80
2018,06,17,13,19,29.80
2018,06,17,13,20,29.90
2018,06,17,13,21,29.90
2018,06,17,13,22,30.00
2018,06,17,13,23,30.00
2018,06,17,13,24,30.10
2018,06,17,13,25,30.20
2018,06,17,13,26,30.30
2018,06,17,13,27,30.40
2018,06,17,13,28,30.50
2018,06,17,13,29,30.60
2018,06,17,13,30,30.70
2018,06,17,13,31,30.80
2018,06,17,13,32,30.80
2018,06,17,13,33,30.90
2018,06,17,13,34,30.90
2018,06,17,13,35,30.90
2018,06,17,13,36,30.90
2018,06,17,13,37,30.90
2018,06,17,13,38,30.90
2018,06,17,13,39,31.00
2018,06,17,13,40,31.10
2018,06,17,13,41,31.10
2018,06,17,13,42,31.10
2018,06,17,13,43,31.20
2018,06,17,13,44,31.30
2018,06,17,13,45,31.30
2018,06,17,13,46,31.30
2018,06,17,13,47,31.40
2018,06,17,13,48,31.40
2018,06,17,13,49,31.50
2018,06,17,13,50,31.60
2018,06,17,13,51,31.50
2018,06,17,13,52,31.50
2018,06,17,13,53,31.50
2018,06,17,13,54,31.50
2018,06,17,13,55,31.50
2018,06,17,13,56,31.50
2018,06,17,13,57,31.50
2018,06,17,13,58,31.50
2018,06,17,13,59,31.40
2018,06,17,14,00,31.40
2018,06,17,14,01,31.40
2018,06,17,14,02,31.40
2018,06,17,14,03,31.50
2018,06,17,14,04,31.50
2018,06,17,14,05,31.60
2018,06,17,14,06,31.70
2018,06,17,14,07,31.80
2018,06,17,14,08,31.80
2018,06,17,14,09,31.80
2018,06,17,14,10,31.80
2018,06,17,14,11,31.70
2018,06,17,14,12,31.60
2018,06,17,14,13,31.50
2018,06,17,14,14,31.50
2018,06,17,14,15,31.50
2018,06,17,14,16,31.40
2018,06,17,14,17,31.30
2018,06,17,14,18,31.10
2018,06,17,14,19,31.10
2018,06,17,14,20,31.00
2018,06,17,14,21,31.10
2018,06,17,14,22,31.10
2018,06,17,14,23,31.10
2018,06,17,14,24,31.10
2018,06,17,14,25,31.00
2018,06,17,14,26,31.00
2018,06,17,14,27,31.00
2018,06,17,14,28,31.00
2018,06,17,14,29,30.90
2018,06,17,14,30,30.70
2018,06,17,14,31,30.70
2018,06,17,14,32,30.70
2018,06,17,14,33,30.80
2018,06,17,14,34,30.80
2018,06,17,14,35,30.70
2018,06,17,14,36,30.70
2018,06,17,14,37,30.70
2018,06,17,14,38,30.70
2018,06,17,14,39,30.80
2018,06,17,14,40,30.90
2018,06,17,14,41,30.90
2018,06,17,14,42,31.00
2018,06,17,14,43,31.10
2018,06,17,14,44,31.20
2018,06,17,14,45,31.30
2018,06,17,14,46,31.30
2018,06,17,14,47,31.20
2018,06,17,14,48,31.20
2018,06,17,14,49,31.20
2018,06,17,14,50,31.20
2018,06,17,14,51,31.20
2018,06,17,14,52,31.20
2018,06,17,14,53,31.20
2018,06,17,14,54,31.10
2018,06,17,14,55,31.10
2018,06,17,14,56,31.10
2018,06,17,14,57,31.00
2018,06,17,14,58,31.00
2018,06,17,14,59,30.90
2018,06,17,15,00,31.00
2018,06,17,15,01,31.00
2018,06,17,15,02,31.10
2018,06,17,15,03,31.10
2018,06,17,15,04,31.20
2018,06,17,15,05,31.30
2018,06,17,15,06,31.30
2018,06,17,15,07,31.30
2018,06,17,15,08,31.40
2018,06,17,15,09,31.40
2018,06,17,15,10,31.40
2018,06,17,15,11,31.50
2018,06,17,15,12,31.50
2018,06,17,15,13,31.50
2018,06,17,15,14,31.40
2018,06,17,15,15,31.40
2018,06,17,15,16,31.40
2018,06,17,15,17,31.40
2018,06,17,15,18,31.40
2018,06,17,15,19,31.40
2018,06,17,15,20,31.50
2018,06,17,15,21,31.50
2018,06,17,15,22,31.60
2018,06,17,15,23,31.60
2018,06,17,15,24,31.60
2018,06,17,15,25,31.60
2018,06,17,15,26,31.60
2018,06,17,15,27,31.70
2018,06,17,15,28,31.70
2018,06,17,15,29,31.70
2018,06,17,15,30,31.70
2018,06,17,15,31,31.70
2018,06,17,15,32,31.70
2018,06,17,15,33,31.70
2018,06,17,15,34,31.60
2018,06,17,15,35,31.60
2018,06,17,15,36,31.50
2018,06,17,15,37,31.40
2018,06,17,15,38,31.40
2018,06,17,15,39,31.30
2018,06,17,15,40,31.20
2018,06,17,15,41,31.20
2018,06,17,15,42,31.10
2018,06,17,15,43,31.00
2018,06,17,15,44,31.00
2018,06,17,15,45,30.90
2018,06,17,15,46,30.90
2018,06,17,15,47,30.80
2018,06,17,15,48,30.80
2018,06,17,15,49,30.80
2018,06,17,15,50,30.80
2018,06,17,15,51,30.80
2018,06,17,15,52,30.80
2018,06,17,15,53,30.80
2018,06,17,15,54,30.80
2018,06,17,15,55,30.80
2018,06,17,15,56,30.80
2018,06,17,15,57,30.80
2018,06,17,15,58,30.80
2018,06,17,15,59,30.80
2018,06,17,16,00,30.80
2018,06,17,16,01,30.80
2018,06,17,16,02,30.80
2018,06,17,16,03,30.80
2018,06,17,16,04,30.80
2018,06,17,16,05,30.80
2018,06,17,16,06,30.80
2018,06,17,16,07,30.80
2018,06,17,16,08,30.80
2018,06,17,16,09,30.70
2018,06,17,16,10,30.70
2018,06,17,16,11,30.70
2018,06,17,16,12,30.70
2018,06,17,16,13,30.70
2018,06,17,16,14,30.70
2018,06,17,16,15,30.70
2018,06,17,16,16,30.70
2018,06,17,16,17,30.70
2018,06,17,16,18,30.60
2018,06,17,16,19,30.60
2018,06,17,16,20,30.60
2018,06,17,16,21,30.60
2018,06,17,16,22,30.60
2018,06,17,16,23,30.60
2018,06,17,16,24,30.60
2018,06,17,16,25,30.60
2018,06,17,16,26,30.60
2018,06,17,16,27,30.60
2018,06,17,16,28,30.60
2018,06,17,16,29,30.60
2018,06,17,16,30,30.60
2018,06,17,16,31,30.60
2018,06,17,16,32,30.70
2018,06,17,16,33,30.70
2018,06,17,16,34,30.70
2018,06,17,16,35,30.80
2018,06,17,16,36,30.80
2018,06,17,16,37,30.80
2018,06,17,16,38,30.80
2018,06,17,16,39,30.80
2018,06,17,16,40,30.70
2018,06,17,16,41,30.70
2018,06,17,16,42,30.70
2018,06,17,16,43,30.70
2018,06,17,16,44,30.60
2018,06,17,16,45,30.60
2018,06,17,16,46,30.60
2018,06,17,16,47,30.60
2018,06,17,16,48,30.60
2018,06,17,16,49,30.60
2018,06,17,16,50,30.60
2018,06,17,16,51,30.60
2018,06,17,16,52,30.60
2018,06,17,16,53,30.60
2018,06,17,16,54,30.60
2018,06,17,16,55,30.60
2018,06,17,16,56,30.60
2018,06,17,16,57,30.60
2018,06,17,16,58,30.50
2018,06,17,16,59,30.50
2018,06,17,17,00,30.50
2018,06,17,17,01,30.50
2018,06,17,17,02,30.50
2018,06,17,17,03,30.40
2018,06,17,17,04,30.40
2018,06,17,17,05,30.40
2018,06,17,17,06,30.40
2018,06,17,17,07,30.40
2018,06,17,17,08,30.40
2018,06,17,17,09,30.40
2018,06,17,17,10,30.30
2018,06,17,17,11,30.30
2018,06,17,17,12,30.30
2018,06,17,17,13,30.20
2018,06,17,17,14,30.20
2018,06,17,17,15,30.20
2018,06,17,17,16,30.20
2018,06,17,17,17,30.20
2018,06,17,17,18,30.10
2018,06,17,17,19,30.10